sat.trackr.live / text

‹ back to catalog

STARLINK-11144 [DTC]

NORAD 59955 · 2024-107L

PAYLOAD ACTIVE UNKNOWN

§ Identity

Operator
Country
US
Launch date
2024-06-05
Launch site
AFETR
Launch vehicle
Mass (kg)
RCS (m²)

Purposes: comms

External: N2YO · Heavens-Above · Gunter

§ Orbital elements

Epoch: 2026-09-21T12:06:41.171616Z

Period
91.74 min
Inclination
53.1586°
Eccentricity
0.0000764
Mean motion
15.69706645 rev/d
Perigee alt
359.2 km
Apogee alt
360.3 km
Semi-major
6,737.9 km
B*
-5.5740e-6
RAAN
5.7725°
Arg perigee
74.6087°
Mean anomaly
285.5015°
Rev number
13,296

§ Raw data

STARLINK-11144 [DTC]1 59955U 24107L   26264.50464319 -.00001263  00000+0 -55740-5 0  99982 59955  53.1586   5.7725 0000764  74.6087 285.5015 15.69706645132964

JSON: /api/v1/satellites/59955 · /tle

For live sub-satellite position, see the globe view (requires WebGL).

§ Visibility from observer

Set your observer location to see the next 7 days of passes ≥ 10°. The values pass through the URL so the page stays shareable.

No JS? Fill the form by hand. The geolocation button needs JavaScript.